EZY49EV EGGW-LICJ

Flight info

Callsign EZY49EV
Flight time N/A
Altitude 35000
Route RODNI N27 ICTAM Q63 CPT DCT MID UL612 OGULO DCT OKASI DCT OKEKO DCT MOU DCT MADIV DCT MOKIP DCT TUFTA DCT KOGAS DCT MEDAM DCT NITAM DCT MOGBO DCT BAKRO DCT VALMA DCT BETOT DCT RONAB DCT GIANO
Aircraft A320/M-SDE3FGHIRWY/LB1

Departure

Time 2026-05-06 23:35
Airport London Luton Airport (EGGW)

Arrival

Time N/A
Airport Falcone–Borsellino Airport (LICJ)
Time Latitude Longitude Altitude Speed Heading
2026-05-06 22:58 51.88108 -0.37703 524 ft 0 kts 170°
2026-05-06 23:22 51.88124 -0.37708 523 ft 0 kts 166°
2026-05-06 23:26 51.88139 -0.37716 523 ft 3 kts 148°
2026-05-06 23:26 51.88152 -0.37730 523 ft 4 kts 202°
2026-05-06 23:26 51.88166 -0.37705 523 ft 4 kts 240°
2026-05-06 23:26 51.88172 -0.37687 523 ft 1 kts 240°
2026-05-06 23:29 51.88171 -0.37691 523 ft 2 kts 240°
2026-05-06 23:29 51.88138 -0.37776 523 ft 11 kts 232°
2026-05-06 23:29 51.88089 -0.37857 523 ft 9 kts 220°
2026-05-06 23:30 51.88041 -0.37909 523 ft 8 kts 213°
2026-05-06 23:30 51.88002 -0.37953 523 ft 6 kts 214°
2026-05-06 23:30 51.87969 -0.37987 523 ft 6 kts 211°
2026-05-06 23:30 51.87910 -0.38020 523 ft 12 kts 184°
2026-05-06 23:31 51.87832 -0.37979 523 ft 11 kts 143°
2026-05-06 23:31 51.87793 -0.37886 523 ft 9 kts 114°
2026-05-06 23:31 51.87767 -0.37801 523 ft 7 kts 116°
2026-05-06 23:31 51.87745 -0.37726 523 ft 9 kts 116°
2026-05-06 23:32 51.87704 -0.37590 519 ft 16 kts 116°
2026-05-06 23:32 51.87633 -0.37468 522 ft 14 kts 161°
2026-05-06 23:32 51.87547 -0.37473 521 ft 12 kts 199°
2026-05-06 23:32 51.87497 -0.37561 522 ft 9 kts 253°
2026-05-06 23:33 51.87482 -0.37647 523 ft 8 kts 255°
2026-05-06 23:33 51.87464 -0.37761 522 ft 11 kts 255°
2026-05-06 23:33 51.87444 -0.37876 523 ft 11 kts 254°
2026-05-06 23:33 51.87421 -0.37989 524 ft 9 kts 241°
2026-05-06 23:34 51.87367 -0.38067 523 ft 13 kts 207°
2026-05-06 23:34 51.87285 -0.38117 522 ft 10 kts 186°
2026-05-06 23:34 51.87260 -0.38025 524 ft 18 kts 81°
2026-05-06 23:34 51.87345 -0.37542 521 ft 82 kts 74°
2026-05-06 23:35 51.87560 -0.36291 521 ft 146 kts 74°
2026-05-06 23:35 51.87846 -0.34551 1021 ft 157 kts 74°
2026-05-06 23:35 51.88109 -0.32847 1919 ft 156 kts 76°
2026-05-06 23:35 51.88423 -0.31099 2522 ft 165 kts 72°
2026-05-06 23:36 51.88798 -0.29247 2852 ft 183 kts 74°
2026-05-06 23:36 51.89106 -0.27163 3213 ft 197 kts 79°
2026-05-06 23:36 51.89113 -0.24881 3532 ft 216 kts 110°
2026-05-06 23:36 51.88138 -0.22916 3859 ft 240 kts 148°
2026-05-06 23:37 51.86474 -0.22263 4318 ft 259 kts 186°
2026-05-06 23:37 51.84829 -0.23415 5065 ft 265 kts 222°
2026-05-06 23:37 51.83817 -0.25916 5877 ft 270 kts 247°
2026-05-06 23:37 51.83253 -0.28828 6699 ft 274 kts 256°
2026-05-06 23:38 51.82854 -0.31857 7480 ft 277 kts 258°
2026-05-06 23:38 51.82493 -0.34925 8293 ft 279 kts 259°
2026-05-06 23:38 51.82117 -0.38011 9124 ft 280 kts 259°
2026-05-06 23:38 51.81712 -0.41113 9923 ft 283 kts 259°
2026-05-06 23:39 51.81225 -0.44263 10352 ft 300 kts 255°
2026-05-06 23:39 51.80660 -0.47635 10521 ft 322 kts 257°
2026-05-06 23:39 51.80131 -0.51234 10960 ft 334 kts 258°
2026-05-06 23:39 51.79610 -0.54921 11617 ft 338 kts 258°
2026-05-06 23:40 51.79078 -0.58641 12304 ft 341 kts 258°
2026-05-06 23:40 51.78530 -0.62381 12980 ft 344 kts 257°
2026-05-06 23:40 51.77961 -0.66159 13652 ft 348 kts 257°
2026-05-06 23:40 51.77379 -0.69968 14248 ft 351 kts 257°
2026-05-06 23:41 51.76791 -0.73769 14850 ft 354 kts 256°
2026-05-06 23:41 51.75951 -0.77521 15437 ft 358 kts 245°
2026-05-06 23:41 51.74645 -0.80952 16034 ft 362 kts 233°
2026-05-06 23:41 51.72940 -0.83961 16613 ft 365 kts 226°
2026-05-06 23:42 51.71135 -0.86868 17211 ft 368 kts 226°
2026-05-06 23:42 51.69314 -0.89795 17789 ft 370 kts 226°
2026-05-06 23:42 51.67484 -0.92732 18370 ft 373 kts 226°
2026-05-06 23:42 51.65639 -0.95689 18860 ft 376 kts 226°
2026-05-06 23:43 51.63781 -0.98665 19354 ft 378 kts 226°
2026-05-06 23:43 51.61907 -1.01665 19834 ft 380 kts 226°
2026-05-06 23:43 51.60023 -1.04673 20315 ft 383 kts 226°
2026-05-06 23:43 51.58119 -1.07693 20779 ft 385 kts 225°
2026-05-06 23:44 51.56026 -1.10412 21224 ft 389 kts 214°
2026-05-06 23:44 51.53642 -1.12529 21674 ft 393 kts 205°
2026-05-06 23:44 51.51092 -1.13934 22034 ft 395 kts 194°
2026-05-06 23:44 51.48422 -1.14473 22162 ft 394 kts 181°
2026-05-06 23:45 51.45690 -1.14039 22310 ft 398 kts 168°
2026-05-06 23:45 51.43044 -1.12601 22647 ft 405 kts 155°
2026-05-06 23:45 51.40666 -1.10272 23054 ft 409 kts 142°
2026-05-06 23:45 51.38479 -1.07326 23459 ft 412 kts 140°
2026-05-06 23:46 51.36288 -1.04339 23833 ft 415 kts 140°
2026-05-06 23:46 51.34088 -1.01338 24184 ft 417 kts 140°
2026-05-06 23:46 51.31873 -0.98317 24527 ft 419 kts 140°
2026-05-06 23:46 51.29645 -0.95279 24863 ft 421 kts 141°
2026-05-06 23:47 51.28137 -0.93223 25094 ft 423 kts 141°
2026-05-06 23:47 51.25959 -0.90257 25313 ft 424 kts 141°
2026-05-06 23:47 51.23709 -0.87202 25618 ft 426 kts 141°
2026-05-06 23:47 51.21441 -0.84125 25951 ft 428 kts 141°
2026-05-06 23:48 51.19167 -0.81043 26273 ft 430 kts 141°
2026-05-06 23:48 51.16879 -0.77948 26596 ft 432 kts 141°
2026-05-06 23:48 51.14582 -0.74846 26917 ft 434 kts 141°
2026-05-06 23:48 51.12272 -0.71737 27231 ft 436 kts 141°
2026-05-06 23:49 51.09942 -0.68614 27556 ft 438 kts 141°
2026-05-06 23:49 51.07605 -0.65486 27852 ft 440 kts 141°
2026-05-06 23:49 51.05238 -0.62393 28151 ft 442 kts 145°
2026-05-06 23:49 51.02702 -0.59627 28448 ft 443 kts 147°
2026-05-06 23:50 51.00176 -0.56922 28738 ft 445 kts 147°
2026-05-06 23:50 50.95014 -0.51413 29298 ft 449 kts 148°
2026-05-06 23:50 50.92412 -0.48646 29566 ft 450 kts 148°
2026-05-06 23:51 50.89806 -0.45877 29830 ft 452 kts 148°
2026-05-06 23:51 50.87189 -0.43095 30079 ft 454 kts 148°
2026-05-06 23:51 50.84558 -0.40302 30309 ft 456 kts 148°
2026-05-06 23:51 50.81920 -0.37505 30525 ft 457 kts 148°
2026-05-06 23:52 50.79267 -0.34699 30763 ft 458 kts 148°
2026-05-06 23:52 50.76618 -0.31906 31077 ft 457 kts 148°
2026-05-06 23:52 50.73974 -0.29123 31382 ft 456 kts 148°
2026-05-06 23:52 50.71331 -0.26349 31680 ft 456 kts 148°
2026-05-06 23:53 50.68694 -0.23578 31971 ft 455 kts 148°
2026-05-06 23:53 50.66057 -0.20808 32261 ft 455 kts 148°
2026-05-06 23:53 50.63422 -0.18044 32551 ft 454 kts 148°
2026-05-06 23:53 50.60796 -0.15294 32841 ft 454 kts 148°
2026-05-06 23:54 50.58162 -0.12540 33134 ft 453 kts 148°
2026-05-06 23:54 50.55537 -0.09803 33419 ft 453 kts 148°
2026-05-06 23:54 50.52911 -0.07071 33709 ft 452 kts 148°
2026-05-06 23:54 50.50286 -0.04345 34000 ft 452 kts 148°
2026-05-06 23:55 50.47663 -0.01623 34249 ft 452 kts 148°
2026-05-06 23:55 50.45044 0.01096 34479 ft 451 kts 148°
2026-05-06 23:55 50.42461 0.03781 34701 ft 451 kts 148°
2026-05-06 23:55 50.39810 0.06533 34908 ft 451 kts 148°
2026-05-06 23:56 50.37219 0.09216 35026 ft 451 kts 148°
2026-05-06 23:56 50.34609 0.11916 35043 ft 449 kts 148°
2026-05-06 23:56 50.29406 0.17277 35041 ft 448 kts 148°
2026-05-06 23:57 50.24199 0.22619 35040 ft 447 kts 148°
2026-05-06 23:57 50.18991 0.27955 35034 ft 447 kts 148°
2026-05-06 23:58 50.13796 0.33298 35041 ft 447 kts 148°
2026-05-06 23:58 50.08630 0.38613 35043 ft 447 kts 148°
2026-05-06 23:59 50.03430 0.43939 35043 ft 447 kts 148°
2026-05-06 23:59 49.98219 0.49255 35045 ft 447 kts 148°
2026-05-07 00:00 49.93007 0.54550 35038 ft 448 kts 148°
2026-05-07 00:00 49.88666 0.58939 35039 ft 448 kts 148°
2026-05-07 00:01 49.82784 0.65617 35040 ft 449 kts 141°
2026-05-07 00:01 49.77948 0.71748 35041 ft 449 kts 142°
2026-05-07 00:02 49.73131 0.77795 35035 ft 449 kts 142°
2026-05-07 00:02 49.68273 0.83859 35039 ft 449 kts 142°
2026-05-07 00:03 49.63410 0.89932 35044 ft 449 kts 142°
2026-05-07 00:03 49.58546 0.95994 35041 ft 449 kts 142°
2026-05-07 00:04 49.53684 1.02050 35040 ft 450 kts 141°
2026-05-07 00:04 49.49643 1.07080 35035 ft 450 kts 141°
2026-05-07 00:05 49.44764 1.13101 35035 ft 450 kts 142°
2026-05-07 00:05 49.39081 1.20091 35037 ft 450 kts 142°
2026-05-07 00:06 49.35022 1.25097 35038 ft 450 kts 142°
2026-05-07 00:06 49.30138 1.31106 35039 ft 450 kts 142°
2026-05-07 00:07 49.25242 1.37092 35035 ft 450 kts 141°
2026-05-07 00:07 49.20326 1.43079 35030 ft 451 kts 141°
2026-05-07 00:08 49.15414 1.49061 35032 ft 452 kts 141°
2026-05-07 00:08 49.10495 1.55054 35032 ft 452 kts 141°
2026-05-07 00:09 49.05570 1.61019 35025 ft 452 kts 141°
2026-05-07 00:09 49.00669 1.66930 35024 ft 452 kts 141°
2026-05-07 00:10 48.95732 1.72873 35022 ft 452 kts 141°
2026-05-07 00:10 48.90797 1.78817 35025 ft 452 kts 141°
2026-05-07 00:11 48.85855 1.84740 35027 ft 452 kts 141°
2026-05-07 00:11 48.80914 1.90635 35039 ft 452 kts 141°
2026-05-07 00:12 48.75975 1.96535 35042 ft 452 kts 142°
2026-05-07 00:12 48.71035 2.02408 35042 ft 452 kts 142°
2026-05-07 00:13 48.66089 2.08271 35040 ft 451 kts 142°
2026-05-07 00:13 48.61142 2.14125 35034 ft 451 kts 142°
2026-05-07 00:14 48.56294 2.20054 35034 ft 451 kts 135°
2026-05-07 00:14 48.51878 2.26774 35015 ft 451 kts 134°
2026-05-07 00:15 48.47449 2.33484 35018 ft 451 kts 134°
2026-05-07 00:15 48.43025 2.40171 35016 ft 451 kts 135°
2026-05-07 00:16 48.38596 2.46850 35004 ft 451 kts 135°
2026-05-07 00:16 48.34167 2.53525 35006 ft 451 kts 135°
2026-05-07 00:17 48.29700 2.60137 35007 ft 450 kts 140°
2026-05-07 00:17 48.24437 2.65145 35007 ft 449 kts 156°
2026-05-07 00:18 48.18791 2.69140 35002 ft 449 kts 153°
2026-05-07 00:18 48.13292 2.73592 35000 ft 449 kts 151°
2026-05-07 00:19 48.07843 2.78066 34998 ft 449 kts 156°
2026-05-07 00:19 48.02116 2.81808 35000 ft 449 kts 157°
2026-05-07 00:20 47.96363 2.85440 34996 ft 449 kts 158°
2026-05-07 00:20 47.90589 2.89063 34995 ft 449 kts 158°
2026-05-07 00:21 47.84833 2.92700 34997 ft 449 kts 158°
2026-05-07 00:21 47.79080 2.96345 35002 ft 449 kts 158°
2026-05-07 00:22 47.73319 2.99978 34996 ft 450 kts 158°
2026-05-07 00:22 47.67594 3.03568 34996 ft 450 kts 158°
2026-05-07 00:23 47.61819 3.07186 34998 ft 450 kts 158°
2026-05-07 00:23 47.56043 3.10794 35002 ft 451 kts 158°
2026-05-07 00:24 47.50263 3.14399 35001 ft 451 kts 158°
2026-05-07 00:24 47.44482 3.17998 35000 ft 451 kts 158°
2026-05-07 00:25 47.38703 3.21580 35004 ft 451 kts 158°
2026-05-07 00:25 47.32919 3.25153 34998 ft 451 kts 158°
2026-05-07 00:26 47.27132 3.28731 34993 ft 451 kts 158°
2026-05-07 00:26 47.21346 3.32303 35004 ft 451 kts 158°
2026-05-07 00:27 47.15601 3.35832 35009 ft 450 kts 158°
2026-05-07 00:27 47.09811 3.39384 35009 ft 450 kts 158°
2026-05-07 00:28 47.04029 3.42931 35010 ft 450 kts 158°
2026-05-07 00:28 46.98243 3.46456 35014 ft 450 kts 159°
2026-05-07 00:29 46.92453 3.49975 35009 ft 450 kts 159°
2026-05-07 00:30 46.80882 3.56993 35005 ft 450 kts 159°
2026-05-07 00:30 46.75309 3.60976 35004 ft 451 kts 145°
2026-05-07 00:31 46.72908 3.63927 35006 ft 452 kts 134°
2026-05-07 00:31 46.70936 3.67491 35004 ft 453 kts 123°
2026-05-07 00:31 46.69460 3.71543 35000 ft 453 kts 112°
2026-05-07 00:31 46.68519 3.75912 35000 ft 453 kts 103°
2026-05-07 00:32 46.67022 3.84834 34992 ft 454 kts 104°
2026-05-07 00:32 46.65492 3.93750 34993 ft 454 kts 104°
2026-05-07 00:33 46.63947 4.02672 34995 ft 455 kts 104°
2026-05-07 00:33 46.62389 4.11593 35000 ft 455 kts 104°
2026-05-07 00:34 46.60827 4.20520 35001 ft 455 kts 104°
2026-05-07 00:34 46.59273 4.29451 35003 ft 456 kts 104°
2026-05-07 00:35 46.57700 4.38377 35007 ft 456 kts 104°
2026-05-07 00:35 46.56115 4.47294 35014 ft 456 kts 105°
2026-05-07 00:36 46.54520 4.56209 35015 ft 456 kts 105°
2026-05-07 00:36 46.52940 4.65059 35011 ft 455 kts 105°
2026-05-07 00:37 46.51342 4.73959 35007 ft 455 kts 105°
2026-05-07 00:37 46.49736 4.82845 35007 ft 455 kts 105°
2026-05-07 00:38 46.48120 4.91740 34993 ft 456 kts 105°
2026-05-07 00:38 46.46491 5.00638 34991 ft 456 kts 105°
2026-05-07 00:39 46.44851 5.09530 34984 ft 457 kts 105°
2026-05-07 00:39 46.43216 5.18438 34986 ft 458 kts 105°
2026-05-07 00:40 46.41574 5.27354 34985 ft 458 kts 106°
2026-05-07 00:40 46.39907 5.36255 34986 ft 458 kts 108°
2026-05-07 00:41 46.37222 5.44534 34983 ft 453 kts 126°
2026-05-07 00:41 46.33240 5.51573 34987 ft 452 kts 132°
2026-05-07 00:42 46.29175 5.58456 34985 ft 452 kts 132°
2026-05-07 00:42 46.25078 5.65374 34989 ft 453 kts 133°
2026-05-07 00:43 46.20984 5.72279 34981 ft 453 kts 133°
2026-05-07 00:43 46.16882 5.79183 34985 ft 453 kts 133°
2026-05-07 00:44 46.12774 5.86083 34986 ft 453 kts 133°
2026-05-07 00:44 46.08657 5.92960 34984 ft 453 kts 133°
2026-05-07 00:45 46.04542 5.99836 34982 ft 453 kts 133°
2026-05-07 00:45 46.00422 6.06702 34972 ft 453 kts 134°
2026-05-07 00:46 45.96291 6.13570 34974 ft 453 kts 134°
2026-05-07 00:46 45.92181 6.20376 34976 ft 454 kts 134°
2026-05-07 00:47 45.88035 6.27226 34982 ft 454 kts 134°
2026-05-07 00:47 45.83860 6.34106 34983 ft 454 kts 134°
2026-05-07 00:48 45.79474 6.40470 34998 ft 448 kts 147°
2026-05-07 00:48 45.74405 6.45655 34995 ft 447 kts 148°
2026-05-07 00:49 45.69337 6.50813 34992 ft 447 kts 148°
2026-05-07 00:49 45.64268 6.55966 35000 ft 447 kts 148°
2026-05-07 00:50 45.59188 6.61107 34998 ft 447 kts 148°
2026-05-07 00:50 45.54144 6.66199 34982 ft 447 kts 149°
2026-05-07 00:51 45.49066 6.71319 34984 ft 447 kts 149°
2026-05-07 00:51 45.43984 6.76445 34988 ft 447 kts 149°
2026-05-07 00:52 45.38898 6.81545 35000 ft 447 kts 149°
2026-05-07 00:52 45.33805 6.86645 34983 ft 447 kts 149°
2026-05-07 00:53 45.28717 6.91735 34979 ft 447 kts 149°
2026-05-07 00:53 45.23938 6.97450 34950 ft 453 kts 141°
2026-05-07 00:54 45.19459 7.03640 34961 ft 453 kts 141°
2026-05-07 00:54 45.14944 7.09850 34944 ft 452 kts 141°
2026-05-07 00:55 45.11175 7.15080 34952 ft 454 kts 137°
2026-05-07 00:55 45.07362 7.22308 34954 ft 460 kts 130°
2026-05-07 00:56 45.03704 7.29678 34956 ft 461 kts 130°